Weather History for Hollywood, FL

Change the Weather History Date:

Tuesday, January 22, 2013

  Actual Average (KFLL) Record (KFLL)
Temperature  
Mean Temperature 70 °F 69 °F  
Max Temperature 79 °F 76 °F 88 °F (1926)
Min Temperature 62 °F 62 °F 29 °F (1985)
Degree Days  
Heating Degree Days 0 1  
Month to date heating degree days 38  
Since 1 July heating degree days 70  
Cooling Degree Days 6 5  
Month to date cooling degree days 119  
Year to date cooling degree days 119  
Growing Degree Days 20 (Base 50)    
Moisture  
Dew Point 59 °F    
Average Humidity 76    
Maximum Humidity 100    
Minimum Humidity 47    
Precipitation  
Precipitation 0.00 in 0.17 in 2.00 in (1936)
Month to date precipitation 2.06  
Year to date precipitation 2.06  
Snow  
Snow 0.00 in - - ()
Month to date snowfall  
Since 1 July snowfall  
Snow Depth -    
Sea Level Pressure  
Sea Level Pressure 30.11 in    
Wind  
Wind Speed 8 mph (NNW)    
Max Wind Speed 16 mph    
Max Gust Speed 22 mph    
Visibility 10 miles    
Events      
T = Trace of Precipitation, MM = Missing Value Source: NWS Daily Summary

Daily Weather History Graph

Daily Weather History Graph

Search for Another Location

Airport:

Trip Planner

Search our weather history database for the weather conditions in past years. The results will help you decide how hot, cold, wet, or windy it might be!

Date:

Astronomy

Jan. 22, 2013 Rise Set
Actual Time 7:08 AM EST 5:57 PM EST
Civil Twilight 6:44 AM EST 6:21 PM EST
Nautical Twilight 6:16 AM EST 6:49 PM EST
Astronomical Twilight 5:48 AM EST 7:17 PM EST
Moon 2:22 PM EST (1/22) 3:25 AM EST (1/22)
Length of Visible Light 11h 37m
Length of Day
10h 48m
Waxing Gibbous, 82% of the Moon is Illuminated
Jan 22
Waxing Gibbous
Jan 26
Full
Feb 3
Last Quarter
Feb 10
New
Feb 17
First Quarter

Hourly Weather History & Observations

Time (EST) Temp. Dew Point Humidity Pressure Visibility Wind Dir Wind Speed Gust Speed Precip Events Conditions
12:53 AM 66.0 °F 64.0 °F 93% 30.06 in 10.0 mi NW 5.8 mph - N/A   Clear
1:53 AM 64.9 °F 63.0 °F 93% 30.04 in 10.0 mi NW 5.8 mph - N/A   Clear
2:25 AM 64.4 °F 64.4 °F 100% 30.05 in 10.0 mi West 4.6 mph - N/A   Mostly Cloudy
2:34 AM 66.2 °F 64.4 °F 94% 30.05 in 10.0 mi West 5.8 mph - N/A   Overcast
2:53 AM 66.0 °F 64.0 °F 93% 30.04 in 10.0 mi WNW 5.8 mph - N/A   Overcast
3:50 AM 64.4 °F 62.6 °F 94% 30.04 in 10.0 mi NW 10.4 mph - N/A   Overcast
3:53 AM 64.9 °F 63.0 °F 93% 30.04 in 10.0 mi NW 9.2 mph - N/A   Overcast
4:30 AM 64.4 °F 62.6 °F 94% 30.04 in 10.0 mi NW 8.1 mph - N/A   Scattered Clouds
4:53 AM 64.0 °F 62.1 °F 93% 30.04 in 10.0 mi NW 6.9 mph - N/A   Clear
5:53 AM 63.0 °F 61.0 °F 93% 30.07 in 10.0 mi NW 8.1 mph - N/A   Clear
6:53 AM 63.0 °F 60.1 °F 90% 30.09 in 10.0 mi NW 9.2 mph - N/A   Partly Cloudy
7:07 AM 62.6 °F 59.0 °F 88% 30.09 in 10.0 mi NW 8.1 mph - N/A   Mostly Cloudy
7:18 AM 62.6 °F 59.0 °F 88% 30.10 in 10.0 mi NW 8.1 mph - N/A   Scattered Clouds
7:53 AM 63.0 °F 59.0 °F 87% 30.11 in 10.0 mi NW 9.2 mph - N/A   Clear
8:53 AM 66.0 °F 57.9 °F 75% 30.13 in 10.0 mi NNW 10.4 mph - N/A   Clear
9:53 AM 70.0 °F 57.9 °F 65% 30.15 in 10.0 mi North 12.7 mph - N/A   Clear
10:53 AM 72.0 °F 57.9 °F 61% 30.16 in 10.0 mi NNW 10.4 mph - N/A   Clear
11:53 AM 75.0 °F 57.9 °F 55% 30.14 in 10.0 mi North 9.2 mph - N/A   Clear
12:53 PM 75.0 °F 57.0 °F 53% 30.12 in 10.0 mi North 11.5 mph - N/A   Mostly Cloudy
1:53 PM 75.9 °F 57.0 °F 52% 30.11 in 10.0 mi NNW 15.0 mph - N/A   Mostly Cloudy
2:53 PM 79.0 °F 57.0 °F 47% 30.10 in 10.0 mi NNW 15.0 mph 21.9 mph N/A   Scattered Clouds
3:53 PM 75.9 °F 57.0 °F 52% 30.12 in 10.0 mi NNW 15.0 mph - N/A   Mostly Cloudy
4:53 PM 72.0 °F 55.9 °F 57% 30.14 in 10.0 mi North 16.1 mph - N/A   Partly Cloudy
5:53 PM 70.0 °F 55.9 °F 61% 30.17 in 10.0 mi North 11.5 mph - N/A   Clear
6:53 PM 69.1 °F 55.0 °F 61% 30.17 in 10.0 mi North 10.4 mph - N/A   Partly Cloudy
7:53 PM 66.9 °F 55.0 °F 66% 30.19 in 10.0 mi North 9.2 mph - N/A   Overcast
8:53 PM 66.0 °F 53.1 °F 63% 30.20 in 10.0 mi NNW 6.9 mph - N/A   Partly Cloudy
9:53 PM 66.0 °F 54.0 °F 65% 30.23 in 10.0 mi NNW 6.9 mph - N/A   Overcast
10:53 PM 64.0 °F 54.0 °F 70% 30.23 in 10.0 mi NNW 6.9 mph - N/A   Clear
11:53 PM 63.0 °F 54.0 °F 72% 30.22 in 10.0 mi NNW 8.1 mph - N/A   Scattered Clouds